カタログに戻る

STARLINK-31339

運用中通信VLEO
NORAD 58981·PAYLOAD·🇺🇸 United States

打ち上げ Feb 15, 2024 から Vandenberg Space Force Base

Loading…

次のパス (今後24時間)

TLE

最新Source: CelesTrak SupGP

元期: Sep 14, 2026, 21:14 UTC

1 58981C 24031S   26257.88520833 -.00057362  00000+0 -16949-2 0  2572
2 58981  53.1561 134.1688 0001284  85.7031 233.1853 15.34417456    10

AllMySatでSTARLINK-31339をリアルタイム追跡

Download on the App Store